SCP
0 0 0 -0 0 0 0 0 -0 0 0 0 0 0 -0 0 0 0 0 0 0 0 0 0 0 0 0 0 0 0 0 0 0 0 0 0 0 0 0 0 0 0 0
0 0 0 0 0 0 0 0 -0 0 0 0 0 0 0 0 0 0 0 0 0 0 0 0 0 0 0 0 0 0 0 0 0 0 0 0 0 0 0 0 0 0 0
0 0 0 0 0 -0 -0 0 -0 0 0 0 0 0 0 0 0 0 0 0 0 0 0 0 0 0 0 0 0 0 0 0 0 0 0 0 0 0 0 0 0 0 0
0 0 0 -0 0 -0 -0 -0 0 0 0 0 0 0 0 0 0 0 0 0 0 0 0 0 0 0 0 0 0 0 0 0 0 0 0 0 0 0 0 0 0 0 0
0 0 0 0 -0 0 -0 -0 -0 -0 0 0 0 0 0 0 0 0 0 0 0 0 0 0 0 0 0 0 0 0 0 0 0 0 0 0 0 0 0 0 0 0 0
0 0 0 0 0 -0 -0 -0 0 0 0 0 0 0 0 0 0 0 0 0 0 0 0 0 0 0 0 0 0 0 0 0 0 0 0 0 0 0 0 0 0 0 0
0 0 0 0 0 0 0 -0 0 0 0 0 0 0 0 0 0 0 0 0 0 0 0 0 0 0 0 0 0 0 0 0 0 0 0 0 0 0 0 0 0 0 0
0 0 0 0 0 0 0 -0 0 0 0 0 0 0 0 0 0 0 0 0 0 0 0 0 0 0 0 0 0 0 0 0 0 0 0 0 0 0 0 0 0 0 0
0 0 0 0 0 0 0 0 0 0 0 0 0 0 0 0 0 0 0 0 0 0 0 0 0 0 0 0 0 0 0 0 0 0 0 0 0 0 0 0 0 0 0
0 0 0 0 0 0 0 0 0 0 0 0 0 0 0 0 0 0 0 0 0 0 0 0 0 0 0 0 0 0 0 0 0 0 0 0 0 0 0 0 0 0 0
0 0 0 0 0 0 0 0 0 0 -0 -0 0 0 0 0 0 0 0 0 0 0 0 0 0 0 0 0 0 0 0 0 0 0 0 0 0 0 0 0 0 0 0
0 0 0 0 0 0 0 0 -0 -0 0 -0 -0 0 0 0 0 0 0 0 0 0 0 0 0 0 0 0 0 0 0 0 0 0 0 0 0 0 0 0 0 0 0
0 0 0 0 0 0 0 0 0 0 0 -0 0 0 0 0 0 0 0 0 0 0 0 0 0 0 0 0 0 0 0 0 0 0 0 0 0 0 0 0 0 0 0
0 0 0 0 0 0 0 0 -0 0 0 -0 -0 0 0 -0 0 0 0 0 0 0 0 0 0 0 0 0 0 0 0 0 0 0 0 0 0 0 0 0 0 0 0
0 0 0 0 0 0 0 0 0 -0 -0 0 0 0 -0 0 0 -0 0 0 0 0 0 0 0 0 0 0 0 0 0 0 0 0 0 0 0 0 0 0 0 0 0
0 0 0 0 0 0 0 0 0 0 0 0 0 -0 -0 -0 -0 0 0 0 0 0 0 0 0 0 0 0 0 0 0 0 0 0 0 0 0 0 0 0 0 0 0
0 0 0 0 0 0 0 0 0 0 0 0 -0 -0 -0 -0 -0 -0 0 0 0 0 0 0 0 0 0 0 0 0 0 0 0 0 0 0 0 0 0 -0 -0 -0 -0
0 0 0 0 0 0 0 0 0 0 0 0 0 -0 -0 -0 -0 -0 0 0 0 0 0 0 0 0 0 0 -0 -0 0 0 0 0 0 0 0 0 0 0 0 0 0
0 0 0 0 0 0 0 0 0 0 0 0 0 0 0 0 0 -0 -0 -0 0 0 0 0 0 0 0 -0 -0 0 0 0 0 0 0 -0 0 0 -0 -0 -0 -0 -0
0 0 0 0 0 0 0 0 0 0 0 0 0 0 0 0 0 0 -0 -0 -0 -0 0 0 0 0 0 0 -0 0 0 0 0 -0 -0 -0 -0 -0 -0 -0 -0 -0 -0
0 0 0 0 0 0 0 0 0 0 0 0 0 0 0 0 0 0 0 0 -0 -0 0 0 0 -0 -0 -0 -0 -0 0 -0 -0 -0 -0 -0 0 -0 0 -0 0 0 -0
0 0 0 0 0 0 0 0 0 0 0 0 0 0 0 0 0 0 0 0 0 0 0 0 0 -0 -0 -0 -0 -0 -0 -0 -0 -0 -0 -0 0 0 0 -0 -0 -0 -0
0 0 0 0 0 0 0 0 0 0 0 0 0 0 0 0 0 0 0 0 0 0 -0 -0 -0 0 -0 -0 0 -0 0 0 -0 -0 -0 0 0 0 0 -0 -0 -0 0
0 0 0 0 0 0 0 0 0 0 0 0 0 0 0 0 0 0 0 -0 0 -0 -0 -0 -0 -0 -0 -0 -0 -0 0 -0 -0 0 0 -0 0 -0 -0 -0 0 0 0
0 0 0 0 0 0 0 0 0 0 0 0 0 0 0 0 0 0 0 0 0 0 0 0 0 0 -0 -0 0 0 0 0 0 0 0 0 0 0 0 0 0 0 0
0 0 0 0 0 0 0 0 0 0 0 0 0 0 0 0 0 0 0 0 0 0 0 -0 0 0 0 0 0 0 0 -0 -0 0 0 0 0 0 0 0 0 0 0
Wind_Speed_500mb
22 24 27 31 33 34 32 30 24 15 14 9 11 15 15 25 25 28 50 48 49 51 55 52 46 42 40 35 34 34 36 36 34 34 36 36 35 35 35 37 36 33 35
23 23 26 28 33 40 38 33 30 22 17 11 5 7 7 18 38 15 30 52 53 53 52 57 51 44 41 40 38 36 34 34 34 34 30 27 28 24 22 20 15 13 12
28 26 29 30 33 38 38 37 35 29 23 14 13 6 11 10 18 24 17 37 53 57 56 53 48 43 42 43 42 40 36 34 34 32 28 13 8 11 7 7 7 5 11
23 24 30 31 33 37 36 32 32 32 26 18 12 10 11 11 10 23 25 12 46 44 61 55 51 46 40 43 41 40 37 41 38 35 38 37 40 25 12 5 5 9 9
23 23 28 32 32 34 35 29 28 28 24 19 12 11 11 14 17 14 18 22 15 49 71 65 55 47 47 42 42 44 47 45 42 40 38 38 41 41 40 41 24 22 22
19 22 28 30 30 31 31 25 23 22 23 18 14 13 10 15 18 18 18 20 16 18 48 63 59 50 47 50 47 46 45 43 45 43 42 40 40 38 33 36 37 33 38
19 22 29 31 29 32 29 21 22 20 20 20 17 13 12 13 18 22 24 19 21 12 26 56 64 65 58 44 49 51 47 49 50 50 48 43 42 44 42 41 47 44 34
22 22 26 30 28 30 28 21 22 19 18 19 18 16 12 12 15 21 25 24 22 22 20 19 23 25 39 30 28 29 24 39 43 50 38 46 48 40 47 45 36 51 32
22 21 23 27 27 26 25 24 23 20 18 17 18 18 16 13 12 17 25 26 27 26 26 27 25 27 27 24 25 21 15 19 21 21 27 31 27 20 25 28 43 40 15
27 23 20 22 24 25 25 25 23 18 18 14 13 14 14 13 12 11 19 24 27 30 30 26 31 24 20 26 26 19 24 23 20 20 14 17 13 14 14 15 16 12 14
36 30 24 20 19 21 23 22 22 21 15 14 14 15 14 11 12 12 13 19 25 31 29 30 22 21 18 16 19 20 16 20 17 19 11 7 4 7 1 4 8 8 15
42 36 27 22 20 18 18 18 19 17 14 12 17 16 16 13 11 9 8 8 17 22 24 26 28 22 24 23 12 17 21 14 14 14 17 17 19 10 10 16 18 22 22
31 28 23 22 21 18 16 13 11 11 13 7 15 16 18 19 15 12 7 3 5 16 19 17 22 21 21 23 22 14 15 15 13 12 15 18 13 11 13 15 14 15 14
24 29 26 21 19 20 19 17 14 13 14 10 14 15 15 17 18 17 15 14 13 16 19 19 20 23 25 18 14 19 13 12 14 11 13 9 9 7 10 11 10 10 11
13 15 19 20 19 20 21 17 13 10 8 7 11 13 15 17 17 19 19 21 20 22 22 22 19 18 15 13 17 11 11 12 9 9 4 4 5 6 7 6 4 6 7
11 10 13 17 16 18 19 16 10 7 5 7 9 15 17 18 18 18 17 22 21 21 23 24 23 19 15 15 17 16 15 14 8 5 9 10 9 8 7 7 10 11 14
13 9 7 11 14 16 16 15 10 6 12 8 8 12 14 14 15 16 16 18 19 17 16 16 16 17 16 17 19 19 17 9 6 9 11 9 11 13 14 14 14 15 16
20 13 8 5 9 10 10 10 5 8 10 8 8 7 7 5 9 12 15 16 15 17 13 19 21 18 20 19 16 13 10 7 9 7 8 13 18 19 18 20 21 22 22
11 12 8 3 5 8 10 7 4 5 9 8 4 5 6 5 6 8 10 11 12 14 16 15 15 13 16 14 14 12 15 13 14 16 18 18 20 23 23 21 18 21 23
5 8 8 5 2 3 6 9 8 8 6 6 4 3 6 6 7 9 9 8 11 14 17 14 12 16 14 10 16 17 16 17 14 15 18 24 24 23 22 24 22 21 24
6 7 7 6 5 2 4 5 8 7 13 12 8 4 2 4 2 2 5 6 14 13 14 13 10 10 13 14 15 15 18 18 17 18 20 21 23 24 24 23 24 23 22
11 11 9 9 9 8 7 7 5 13 12 14 15 13 10 8 9 8 10 10 12 16 16 18 17 14 15 16 16 16 17 21 21 21 23 23 23 24 24 24 25 26 24
19 17 15 16 15 12 11 10 11 14 15 16 17 18 17 15 14 13 14 16 18 19 19 22 23 21 20 21 21 22 23 24 25 27 26 25 26 26 28 28 28 26 22
19 23 25 22 22 20 19 12 21 22 20 20 21 23 22 21 19 19 19 22 23 24 25 24 25 25 26 27 25 24 23 25 26 28 28 28 29 30 30 30 27 23 22
25 30 30 29 25 26 25 25 27 31 30 28 29 30 29 28 27 24 25 25 26 27 26 23 25 24 23 21 25 25 25 26 28 31 31 31 31 31 30 29 28 27 25
30 31 31 36 32 32 30 33 36 40 41 41 39 37 36 34 34 33 32 31 33 32 32 34 30 31 32 34 33 34 35 37 38 38 37 37 37 36 35 33 31 31 29
Wind_Direction_500mb
348 350 352 352 357 358 359 353 349 321 299 288 246 218 195 181 213 232 223 222 217 217 213 207 207 212 213 217 216 220 224 231 238 243 255 264 275 277 285 281 280 281 280
337 346 350 352 355 359 1 2 355 351 329 301 256 212 225 177 214 202 228 225 224 220 218 211 209 207 214 221 223 224 227 233 240 251 259 282 290 289 284 277 268 271 274
326 339 346 349 349 353 357 2 358 352 343 328 284 229 203 199 187 188 217 226 229 226 220 216 210 217 215 222 229 227 235 239 246 250 248 276 270 351 8 320 283 259 244
316 330 339 346 346 350 351 356 355 355 345 337 298 255 208 199 230 199 202 228 220 232 224 214 211 216 217 220 226 232 236 243 243 247 249 253 260 276 298 303 293 278 236
315 325 337 343 344 347 347 350 355 358 350 343 326 279 250 221 233 227 200 207 157 200 210 210 212 218 222 224 226 236 240 244 246 252 259 257 258 260 262 276 277 264 270
312 322 333 340 342 344 345 347 353 354 353 351 344 309 267 241 243 233 229 219 200 167 178 203 217 220 224 231 233 237 242 245 247 251 252 251 253 260 262 266 276 274 282
311 318 331 339 345 346 351 358 356 359 357 355 356 327 298 257 251 241 230 228 213 210 171 208 223 230 236 236 231 246 243 240 243 246 247 256 262 269 272 274 274 275 269
305 311 324 335 343 349 350 353 1 8 2 1 356 348 326 283 262 250 246 235 233 224 219 189 204 191 211 210 210 239 233 238 249 256 245 263 266 272 269 266 279 268 262
310 308 318 330 338 345 349 347 349 353 359 13 355 348 349 321 284 255 242 239 236 232 222 224 220 214 203 219 205 215 222 253 253 249 244 263 288 276 280 278 258 268 223
317 309 311 324 334 341 347 351 354 352 4 7 0 2 358 348 325 286 254 240 235 230 224 224 225 225 220 221 217 225 235 239 237 228 218 255 283 284 286 270 277 222 223
314 313 306 313 328 337 345 349 353 357 356 1 13 16 8 3 359 329 290 246 231 225 223 218 214 219 215 213 213 218 224 238 235 243 240 259 211 55 99 138 292 161 220
316 305 300 305 320 329 339 345 350 354 346 13 18 23 11 16 14 358 331 277 225 206 207 214 208 209 215 223 214 208 214 207 222 216 224 199 199 184 182 161 181 209 241
336 324 300 302 313 321 330 339 350 354 6 56 27 30 30 28 32 32 33 69 150 173 176 183 185 191 189 182 179 186 196 195 184 207 207 196 201 227 218 203 207 254 243
351 344 329 315 311 320 328 336 346 6 25 47 41 42 48 46 49 53 68 80 99 124 130 156 165 176 183 167 176 179 175 189 193 187 188 197 184 214 226 211 220 248 261
353 352 337 324 320 318 323 333 338 0 47 68 58 59 57 66 68 74 85 99 116 124 135 151 164 157 149 159 172 177 180 179 180 185 224 208 220 200 183 212 233 211 166
334 351 350 330 314 313 321 325 341 0 67 107 72 75 68 67 76 81 92 102 115 134 139 145 146 157 168 183 170 170 160 156 159 192 169 185 189 202 207 176 160 149 144
292 318 339 333 316 316 323 329 350 52 110 121 88 77 63 69 78 89 95 107 116 131 138 141 136 150 152 158 154 159 140 122 129 142 161 170 192 180 164 153 145 141 136
260 267 287 320 316 314 321 329 4 111 126 103 96 47 58 74 78 82 89 108 123 129 136 148 154 156 158 166 175 180 161 217 215 205 178 158 158 156 155 157 156 154 141
229 231 247 294 322 321 316 323 305 214 148 137 96 45 49 77 160 117 109 112 145 151 150 147 155 168 175 193 186 177 185 212 196 180 165 165 157 151 150 142 146 142 133
191 198 210 211 148 286 306 308 304 278 248 186 155 63 48 74 118 181 209 217 184 163 155 142 144 185 186 184 173 159 168 187 193 179 174 164 161 151 153 151 147 146 140
194 210 211 209 243 249 262 275 279 287 273 271 264 239 144 119 96 135 178 177 194 193 173 176 210 201 188 182 184 178 183 181 180 174 177 173 165 160 164 163 158 154 152
223 218 224 231 225 235 256 253 260 264 275 274 275 272 264 231 192 194 192 197 196 206 210 215 222 214 193 191 190 186 183 179 169 174 178 175 175 176 178 176 177 172 162
248 242 238 240 249 256 254 252 227 251 249 263 269 270 266 258 255 225 213 203 205 209 208 206 208 208 207 197 195 192 189 187 183 183 184 185 186 187 188 190 188 180 176
253 255 253 251 255 260 264 257 255 267 261 258 259 263 262 256 244 243 236 223 217 214 214 214 212 209 203 203 199 200 201 201 201 200 199 197 197 195 196 198 195 192 191
252 249 252 252 252 254 258 253 252 260 267 264 258 257 256 256 255 249 243 236 226 223 223 220 221 219 216 212 211 213 214 213 214 214 211 210 208 207 207 206 205 206 207
252 254 256 256 261 259 260 261 256 258 260 259 258 260 260 258 258 252 248 245 243 240 232 224 225 222 219 221 219 221 223 224 223 221 220 217 216 215 215 215 216 216 217
Wind_Speed_850mb
22 24 27 31 33 34 32 30 24 15 14 9 11 15 15 25 25 28 50 48 49 51 55 52 46 42 40 35 34 34 36 36 34 34 36 36 35 35 35 37 36 33 35
23 23 26 28 33 40 38 33 30 22 17 11 5 7 7 18 38 15 30 52 53 53 52 57 51 44 41 40 38 36 34 34 34 34 30 27 28 24 22 20 15 13 12
28 26 29 30 33 38 38 37 35 29 23 14 13 6 11 10 18 24 17 37 53 57 56 53 48 43 42 43 42 40 36 34 34 32 28 13 8 11 7 7 7 5 11
23 24 30 31 33 37 36 32 32 32 26 18 12 10 11 11 10 23 25 12 46 44 61 55 51 46 40 43 41 40 37 41 38 35 38 37 40 25 12 5 5 9 9
23 23 28 32 32 34 35 29 28 28 24 19 12 11 11 14 17 14 18 22 15 49 71 65 55 47 47 42 42 44 47 45 42 40 38 38 41 41 40 41 24 22 22
19 22 28 30 30 31 31 25 23 22 23 18 14 13 10 15 18 18 18 20 16 18 48 63 59 50 47 50 47 46 45 43 45 43 42 40 40 38 33 36 37 33 38
19 22 29 31 29 32 29 21 22 20 20 20 17 13 12 13 18 22 24 19 21 12 26 56 64 65 58 44 49 51 47 49 50 50 48 43 42 44 42 41 47 44 34
22 22 26 30 28 30 28 21 22 19 18 19 18 16 12 12 15 21 25 24 22 22 20 19 23 25 39 30 28 29 24 39 43 50 38 46 48 40 47 45 36 51 32
22 21 23 27 27 26 25 24 23 20 18 17 18 18 16 13 12 17 25 26 27 26 26 27 25 27 27 24 25 21 15 19 21 21 27 31 27 20 25 28 43 40 15
27 23 20 22 24 25 25 25 23 18 18 14 13 14 14 13 12 11 19 24 27 30 30 26 31 24 20 26 26 19 24 23 20 20 14 17 13 14 14 15 16 12 14
36 30 24 20 19 21 23 22 22 21 15 14 14 15 14 11 12 12 13 19 25 31 29 30 22 21 18 16 19 20 16 20 17 19 11 7 4 7 1 4 8 8 15
42 36 27 22 20 18 18 18 19 17 14 12 17 16 16 13 11 9 8 8 17 22 24 26 28 22 24 23 12 17 21 14 14 14 17 17 19 10 10 16 18 22 22
31 28 23 22 21 18 16 13 11 11 13 7 15 16 18 19 15 12 7 3 5 16 19 17 22 21 21 23 22 14 15 15 13 12 15 18 13 11 13 15 14 15 14
24 29 26 21 19 20 19 17 14 13 14 10 14 15 15 17 18 17 15 14 13 16 19 19 20 23 25 18 14 19 13 12 14 11 13 9 9 7 10 11 10 10 11
13 15 19 20 19 20 21 17 13 10 8 7 11 13 15 17 17 19 19 21 20 22 22 22 19 18 15 13 17 11 11 12 9 9 4 4 5 6 7 6 4 6 7
11 10 13 17 16 18 19 16 10 7 5 7 9 15 17 18 18 18 17 22 21 21 23 24 23 19 15 15 17 16 15 14 8 5 9 10 9 8 7 7 10 11 14
13 9 7 11 14 16 16 15 10 6 12 8 8 12 14 14 15 16 16 18 19 17 16 16 16 17 16 17 19 19 17 9 6 9 11 9 11 13 14 14 14 15 16
20 13 8 5 9 10 10 10 5 8 10 8 8 7 7 5 9 12 15 16 15 17 13 19 21 18 20 19 16 13 10 7 9 7 8 13 18 19 18 20 21 22 22
11 12 8 3 5 8 10 7 4 5 9 8 4 5 6 5 6 8 10 11 12 14 16 15 15 13 16 14 14 12 15 13 14 16 18 18 20 23 23 21 18 21 23
5 8 8 5 2 3 6 9 8 8 6 6 4 3 6 6 7 9 9 8 11 14 17 14 12 16 14 10 16 17 16 17 14 15 18 24 24 23 22 24 22 21 24
6 7 7 6 5 2 4 5 8 7 13 12 8 4 2 4 2 2 5 6 14 13 14 13 10 10 13 14 15 15 18 18 17 18 20 21 23 24 24 23 24 23 22
11 11 9 9 9 8 7 7 5 13 12 14 15 13 10 8 9 8 10 10 12 16 16 18 17 14 15 16 16 16 17 21 21 21 23 23 23 24 24 24 25 26 24
19 17 15 16 15 12 11 10 11 14 15 16 17 18 17 15 14 13 14 16 18 19 19 22 23 21 20 21 21 22 23 24 25 27 26 25 26 26 28 28 28 26 22
19 23 25 22 22 20 19 12 21 22 20 20 21 23 22 21 19 19 19 22 23 24 25 24 25 25 26 27 25 24 23 25 26 28 28 28 29 30 30 30 27 23 22
25 30 30 29 25 26 25 25 27 31 30 28 29 30 29 28 27 24 25 25 26 27 26 23 25 24 23 21 25 25 25 26 28 31 31 31 31 31 30 29 28 27 25
30 31 31 36 32 32 30 33 36 40 41 41 39 37 36 34 34 33 32 31 33 32 32 34 30 31 32 34 33 34 35 37 38 38 37 37 37 36 35 33 31 31 29
Wind_Direction_850mb
348 350 352 352 357 358 359 353 349 321 299 288 246 218 195 181 213 232 223 222 217 217 213 207 207 212 213 217 216 220 224 231 238 243 255 264 275 277 285 281 280 281 280
337 346 350 352 355 359 1 2 355 351 329 301 256 212 225 177 214 202 228 225 224 220 218 211 209 207 214 221 223 224 227 233 240 251 259 282 290 289 284 277 268 271 274
326 339 346 349 349 353 357 2 358 352 343 328 284 229 203 199 187 188 217 226 229 226 220 216 210 217 215 222 229 227 235 239 246 250 248 276 270 351 8 320 283 259 244
316 330 339 346 346 350 351 356 355 355 345 337 298 255 208 199 230 199 202 228 220 232 224 214 211 216 217 220 226 232 236 243 243 247 249 253 260 276 298 303 293 278 236
315 325 337 343 344 347 347 350 355 358 350 343 326 279 250 221 233 227 200 207 157 200 210 210 212 218 222 224 226 236 240 244 246 252 259 257 258 260 262 276 277 264 270
312 322 333 340 342 344 345 347 353 354 353 351 344 309 267 241 243 233 229 219 200 167 178 203 217 220 224 231 233 237 242 245 247 251 252 251 253 260 262 266 276 274 282
311 318 331 339 345 346 351 358 356 359 357 355 356 327 298 257 251 241 230 228 213 210 171 208 223 230 236 236 231 246 243 240 243 246 247 256 262 269 272 274 274 275 269
305 311 324 335 343 349 350 353 1 8 2 1 356 348 326 283 262 250 246 235 233 224 219 189 204 191 211 210 210 239 233 238 249 256 245 263 266 272 269 266 279 268 262
310 308 318 330 338 345 349 347 349 353 359 13 355 348 349 321 284 255 242 239 236 232 222 224 220 214 203 219 205 215 222 253 253 249 244 263 288 276 280 278 258 268 223
317 309 311 324 334 341 347 351 354 352 4 7 0 2 358 348 325 286 254 240 235 230 224 224 225 225 220 221 217 225 235 239 237 228 218 255 283 284 286 270 277 222 223
314 313 306 313 328 337 345 349 353 357 356 1 13 16 8 3 359 329 290 246 231 225 223 218 214 219 215 213 213 218 224 238 235 243 240 259 211 55 99 138 292 161 220
316 305 300 305 320 329 339 345 350 354 346 13 18 23 11 16 14 358 331 277 225 206 207 214 208 209 215 223 214 208 214 207 222 216 224 199 199 184 182 161 181 209 241
336 324 300 302 313 321 330 339 350 354 6 56 27 30 30 28 32 32 33 69 150 173 176 183 185 191 189 182 179 186 196 195 184 207 207 196 201 227 218 203 207 254 243
351 344 329 315 311 320 328 336 346 6 25 47 41 42 48 46 49 53 68 80 99 124 130 156 165 176 183 167 176 179 175 189 193 187 188 197 184 214 226 211 220 248 261
353 352 337 324 320 318 323 333 338 0 47 68 58 59 57 66 68 74 85 99 116 124 135 151 164 157 149 159 172 177 180 179 180 185 224 208 220 200 183 212 233 211 166
334 351 350 330 314 313 321 325 341 0 67 107 72 75 68 67 76 81 92 102 115 134 139 145 146 157 168 183 170 170 160 156 159 192 169 185 189 202 207 176 160 149 144
292 318 339 333 316 316 323 329 350 52 110 121 88 77 63 69 78 89 95 107 116 131 138 141 136 150 152 158 154 159 140 122 129 142 161 170 192 180 164 153 145 141 136
260 267 287 320 316 314 321 329 4 111 126 103 96 47 58 74 78 82 89 108 123 129 136 148 154 156 158 166 175 180 161 217 215 205 178 158 158 156 155 157 156 154 141
229 231 247 294 322 321 316 323 305 214 148 137 96 45 49 77 160 117 109 112 145 151 150 147 155 168 175 193 186 177 185 212 196 180 165 165 157 151 150 142 146 142 133
191 198 210 211 148 286 306 308 304 278 248 186 155 63 48 74 118 181 209 217 184 163 155 142 144 185 186 184 173 159 168 187 193 179 174 164 161 151 153 151 147 146 140
194 210 211 209 243 249 262 275 279 287 273 271 264 239 144 119 96 135 178 177 194 193 173 176 210 201 188 182 184 178 183 181 180 174 177 173 165 160 164 163 158 154 152
223 218 224 231 225 235 256 253 260 264 275 274 275 272 264 231 192 194 192 197 196 206 210 215 222 214 193 191 190 186 183 179 169 174 178 175 175 176 178 176 177 172 162
248 242 238 240 249 256 254 252 227 251 249 263 269 270 266 258 255 225 213 203 205 209 208 206 208 208 207 197 195 192 189 187 183 183 184 185 186 187 188 190 188 180 176
253 255 253 251 255 260 264 257 255 267 261 258 259 263 262 256 244 243 236 223 217 214 214 214 212 209 203 203 199 200 201 201 201 200 199 197 197 195 196 198 195 192 191
252 249 252 252 252 254 258 253 252 260 267 264 258 257 256 256 255 249 243 236 226 223 223 220 221 219 216 212 211 213 214 213 214 214 211 210 208 207 207 206 205 206 207
252 254 256 256 261 259 260 261 256 258 260 259 258 260 260 258 258 252 248 245 243 240 232 224 225 222 219 221 219 221 223 224 223 221 220 217 216 215 215 215 216 216 217